owner,sensor,date,latitude,longitude,air_temperature,qcFlag 
COMPS,ioos:station:USF.COMPS:TAR:1,2010-06-01T00:00:00Z,28.1560,-82.7580,29.74,1111122 
COMPS,ioos:station:USF.COMPS:TAR:1,2010-06-01T00:06:00Z,28.1560,-82.7580,29.52,1111122 
COMPS,ioos:station:USF.COMPS:TAR:1,2010-06-01T00:12:00Z,28.1560,-82.7580,29.34,1111122 
COMPS,ioos:station:USF.COMPS:TAR:1,2010-06-01T00:18:00Z,28.1560,-82.7580,29.07,1111122 
COMPS,ioos:station:USF.COMPS:TAR:1,2010-06-01T00:24:00Z,28.1560,-82.7580,28.87,1111122 
COMPS,ioos:station:USF.COMPS:TAR:1,2010-06-01T00:30:00Z,28.1560,-82.7580,28.51,1111122 
COMPS,ioos:station:USF.COMPS:TAR:1,2010-06-01T00:36:00Z,28.1560,-82.7580,28.31,1111122 
COMPS,ioos:station:USF.COMPS:TAR:1,2010-06-01T00:42:00Z,28.1560,-82.7580,28.15,1111122 
COMPS,ioos:station:USF.COMPS:TAR:1,2010-06-01T00:48:00Z,28.1560,-82.7580,28.0,1111122 
COMPS,ioos:station:USF.COMPS:TAR:1,2010-06-01T00:54:00Z,28.1560,-82.7580,27.87,1111122 
COMPS,ioos:station:USF.COMPS:TAR:1,2010-06-01T01:00:00Z,28.1560,-82.7580,27.73,1111122 
COMPS,ioos:station:USF.COMPS:TAR:1,2010-06-01T01:06:00Z,28.1560,-82.7580,27.61,1111122 
COMPS,ioos:station:USF.COMPS:TAR:1,2010-06-01T01:12:00Z,28.1560,-82.7580,27.6,1111122 
COMPS,ioos:station:USF.COMPS:TAR:1,2010-06-01T01:18:00Z,28.1560,-82.7580,27.5,1111122 
COMPS,ioos:station:USF.COMPS:TAR:1,2010-06-01T01:24:00Z,28.1560,-82.7580,27.46,1111122 
COMPS,ioos:station:USF.COMPS:TAR:1,2010-06-01T01:30:00Z,28.1560,-82.7580,27.33,1111122 
COMPS,ioos:station:USF.COMPS:TAR:1,2010-06-01T01:36:00Z,28.1560,-82.7580,27.24,1111122 
COMPS,ioos:station:USF.COMPS:TAR:1,2010-06-01T01:42:00Z,28.1560,-82.7580,27.21,1111122 
COMPS,ioos:station:USF.COMPS:TAR:1,2010-06-01T01:48:00Z,28.1560,-82.7580,27.09,1111122 
COMPS,ioos:station:USF.COMPS:TAR:1,2010-06-01T01:54:00Z,28.1560,-82.7580,27.09,1111122 
COMPS,ioos:station:USF.COMPS:TAR:1,2010-06-01T02:00:00Z,28.1560,-82.7580,27.0,1111122 
COMPS,ioos:station:USF.COMPS:TAR:1,2010-06-01T02:06:00Z,28.1560,-82.7580,26.95,1111122 
COMPS,ioos:station:USF.COMPS:TAR:1,2010-06-01T02:12:00Z,28.1560,-82.7580,26.83,1111122 
COMPS,ioos:station:USF.COMPS:TAR:1,2010-06-01T02:18:00Z,28.1560,-82.7580,26.79,1111122 
COMPS,ioos:station:USF.COMPS:TAR:1,2010-06-01T02:24:00Z,28.1560,-82.7580,26.79,1111122 
COMPS,ioos:station:USF.COMPS:TAR:1,2010-06-01T02:30:00Z,28.1560,-82.7580,26.69,1111122 
COMPS,ioos:station:USF.COMPS:TAR:1,2010-06-01T02:36:00Z,28.1560,-82.7580,26.63,1111122 
COMPS,ioos:station:USF.COMPS:TAR:1,2010-06-01T02:42:00Z,28.1560,-82.7580,26.6,1111122 
COMPS,ioos:station:USF.COMPS:TAR:1,2010-06-01T02:48:00Z,28.1560,-82.7580,26.61,1111122 
COMPS,ioos:station:USF.COMPS:TAR:1,2010-06-01T02:54:00Z,28.1560,-82.7580,26.55,1111122 
COMPS,ioos:station:USF.COMPS:TAR:1,2010-06-01T03:00:00Z,28.1560,-82.7580,26.55,1111122 
COMPS,ioos:station:USF.COMPS:TAR:1,2010-06-01T03:06:00Z,28.1560,-82.7580,26.55,1111122 
COMPS,ioos:station:USF.COMPS:TAR:1,2010-06-01T03:12:00Z,28.1560,-82.7580,26.55,1111122 
COMPS,ioos:station:USF.COMPS:TAR:1,2010-06-01T03:18:00Z,28.1560,-82.7580,26.56,1111122 
COMPS,ioos:station:USF.COMPS:TAR:1,2010-06-01T03:24:00Z,28.1560,-82.7580,26.62,1111122 
COMPS,ioos:station:USF.COMPS:TAR:1,2010-06-01T03:30:00Z,28.1560,-82.7580,26.43,1111122 
COMPS,ioos:station:USF.COMPS:TAR:1,2010-06-01T03:36:00Z,28.1560,-82.7580,26.37,1111122 
COMPS,ioos:station:USF.COMPS:TAR:1,2010-06-01T03:42:00Z,28.1560,-82.7580,26.29,1111122 
COMPS,ioos:station:USF.COMPS:TAR:1,2010-06-01T03:48:00Z,28.1560,-82.7580,26.3,1111122 
COMPS,ioos:station:USF.COMPS:TAR:1,2010-06-01T03:54:00Z,28.1560,-82.7580,26.28,1111122 
COMPS,ioos:station:USF.COMPS:TAR:1,2010-06-01T04:00:00Z,28.1560,-82.7580,26.39,1111122 
COMPS,ioos:station:USF.COMPS:TAR:1,2010-06-01T04:06:00Z,28.1560,-82.7580,26.7,1111122 
COMPS,ioos:station:USF.COMPS:TAR:1,2010-06-01T04:12:00Z,28.1560,-82.7580,26.36,1111122 
COMPS,ioos:station:USF.COMPS:TAR:1,2010-06-01T04:18:00Z,28.1560,-82.7580,26.12,1111122 
COMPS,ioos:station:USF.COMPS:TAR:1,2010-06-01T04:24:00Z,28.1560,-82.7580,26.41,1111122 
COMPS,ioos:station:USF.COMPS:TAR:1,2010-06-01T04:30:00Z,28.1560,-82.7580,26.4,1111122 
COMPS,ioos:station:USF.COMPS:TAR:1,2010-06-01T04:36:00Z,28.1560,-82.7580,26.04,1111122 
COMPS,ioos:station:USF.COMPS:TAR:1,2010-06-01T04:42:00Z,28.1560,-82.7580,25.78,1111122 
COMPS,ioos:station:USF.COMPS:TAR:1,2010-06-01T04:48:00Z,28.1560,-82.7580,25.62,1111122 
COMPS,ioos:station:USF.COMPS:TAR:1,2010-06-01T04:54:00Z,28.1560,-82.7580,25.59,1111122 
COMPS,ioos:station:USF.COMPS:TAR:1,2010-06-01T05:00:00Z,28.1560,-82.7580,25.5,1111122 
COMPS,ioos:station:USF.COMPS:TAR:1,2010-06-01T05:06:00Z,28.1560,-82.7580,25.48,1111122 
COMPS,ioos:station:USF.COMPS:TAR:1,2010-06-01T05:12:00Z,28.1560,-82.7580,25.39,1111122 
COMPS,ioos:station:USF.COMPS:TAR:1,2010-06-01T05:18:00Z,28.1560,-82.7580,25.39,1111122 
COMPS,ioos:station:USF.COMPS:TAR:1,2010-06-01T05:24:00Z,28.1560,-82.7580,25.5,1111122 
COMPS,ioos:station:USF.COMPS:TAR:1,2010-06-01T05:30:00Z,28.1560,-82.7580,25.36,1111122 
COMPS,ioos:station:USF.COMPS:TAR:1,2010-06-01T05:36:00Z,28.1560,-82.7580,25.22,1111122 
COMPS,ioos:station:USF.COMPS:TAR:1,2010-06-01T05:42:00Z,28.1560,-82.7580,25.22,1111122 
COMPS,ioos:station:USF.COMPS:TAR:1,2010-06-01T05:48:00Z,28.1560,-82.7580,25.14,1111122 
COMPS,ioos:station:USF.COMPS:TAR:1,2010-06-01T05:54:00Z,28.1560,-82.7580,25.11,1111122 
COMPS,ioos:station:USF.COMPS:TAR:1,2010-06-01T06:00:00Z,28.1560,-82.7580,25.08,1111122 
COMPS,ioos:station:USF.COMPS:TAR:1,2010-06-01T06:06:00Z,28.1560,-82.7580,25.08,1111122 
COMPS,ioos:station:USF.COMPS:TAR:1,2010-06-01T06:12:00Z,28.1560,-82.7580,25.37,1111122 
COMPS,ioos:station:USF.COMPS:TAR:1,2010-06-01T06:18:00Z,28.1560,-82.7580,25.52,1111122 
COMPS,ioos:station:USF.COMPS:TAR:1,2010-06-01T06:24:00Z,28.1560,-82.7580,25.47,1111122 
COMPS,ioos:station:USF.COMPS:TAR:1,2010-06-01T06:30:00Z,28.1560,-82.7580,25.23,1111122 
COMPS,ioos:station:USF.COMPS:TAR:1,2010-06-01T06:36:00Z,28.1560,-82.7580,25.45,1111122 
COMPS,ioos:station:USF.COMPS:TAR:1,2010-06-01T06:42:00Z,28.1560,-82.7580,25.32,1111122 
COMPS,ioos:station:USF.COMPS:TAR:1,2010-06-01T06:48:00Z,28.1560,-82.7580,25.15,1111122 
COMPS,ioos:station:USF.COMPS:TAR:1,2010-06-01T06:54:00Z,28.1560,-82.7580,24.96,1111122 
COMPS,ioos:station:USF.COMPS:TAR:1,2010-06-01T07:00:00Z,28.1560,-82.7580,25.06,1111122 
COMPS,ioos:station:USF.COMPS:TAR:1,2010-06-01T07:06:00Z,28.1560,-82.7580,25.08,1111122 
COMPS,ioos:station:USF.COMPS:TAR:1,2010-06-01T07:12:00Z,28.1560,-82.7580,25.08,1111122 
COMPS,ioos:station:USF.COMPS:TAR:1,2010-06-01T07:18:00Z,28.1560,-82.7580,25.09,1111122 
COMPS,ioos:station:USF.COMPS:TAR:1,2010-06-01T07:24:00Z,28.1560,-82.7580,25.19,1111122 
COMPS,ioos:station:USF.COMPS:TAR:1,2010-06-01T07:30:00Z,28.1560,-82.7580,25.01,1111122 
COMPS,ioos:station:USF.COMPS:TAR:1,2010-06-01T07:36:00Z,28.1560,-82.7580,24.95,1111122 
COMPS,ioos:station:USF.COMPS:TAR:1,2010-06-01T07:42:00Z,28.1560,-82.7580,25.26,1111122 
COMPS,ioos:station:USF.COMPS:TAR:1,2010-06-01T07:48:00Z,28.1560,-82.7580,25.35,1111122 
COMPS,ioos:station:USF.COMPS:TAR:1,2010-06-01T07:54:00Z,28.1560,-82.7580,25.18,1111122 
COMPS,ioos:station:USF.COMPS:TAR:1,2010-06-01T08:00:00Z,28.1560,-82.7580,25.06,1111122 
COMPS,ioos:station:USF.COMPS:TAR:1,2010-06-01T08:06:00Z,28.1560,-82.7580,25.07,1111122 
COMPS,ioos:station:USF.COMPS:TAR:1,2010-06-01T08:12:00Z,28.1560,-82.7580,24.87,1111122 
COMPS,ioos:station:USF.COMPS:TAR:1,2010-06-01T08:18:00Z,28.1560,-82.7580,24.67,1111122 
COMPS,ioos:station:USF.COMPS:TAR:1,2010-06-01T08:24:00Z,28.1560,-82.7580,24.78,1111122 
COMPS,ioos:station:USF.COMPS:TAR:1,2010-06-01T08:30:00Z,28.1560,-82.7580,24.68,1111122 
COMPS,ioos:station:USF.COMPS:TAR:1,2010-06-01T08:36:00Z,28.1560,-82.7580,24.68,1111122 
COMPS,ioos:station:USF.COMPS:TAR:1,2010-06-01T08:42:00Z,28.1560,-82.7580,24.63,1111122 
COMPS,ioos:station:USF.COMPS:TAR:1,2010-06-01T08:48:00Z,28.1560,-82.7580,24.81,1111122 
COMPS,ioos:station:USF.COMPS:TAR:1,2010-06-01T08:54:00Z,28.1560,-82.7580,24.94,1111122 
COMPS,ioos:station:USF.COMPS:TAR:1,2010-06-01T09:00:00Z,28.1560,-82.7580,24.8,1111122 
COMPS,ioos:station:USF.COMPS:TAR:1,2010-06-01T09:06:00Z,28.1560,-82.7580,24.67,1111122 
COMPS,ioos:station:USF.COMPS:TAR:1,2010-06-01T09:12:00Z,28.1560,-82.7580,24.72,1111122 
COMPS,ioos:station:USF.COMPS:TAR:1,2010-06-01T09:18:00Z,28.1560,-82.7580,24.85,1111122 
COMPS,ioos:station:USF.COMPS:TAR:1,2010-06-01T09:24:00Z,28.1560,-82.7580,24.66,1111122 
COMPS,ioos:station:USF.COMPS:TAR:1,2010-06-01T09:30:00Z,28.1560,-82.7580,24.41,1111122 
COMPS,ioos:station:USF.COMPS:TAR:1,2010-06-01T09:36:00Z,28.1560,-82.7580,24.42,1111122 
COMPS,ioos:station:USF.COMPS:TAR:1,2010-06-01T09:42:00Z,28.1560,-82.7580,24.53,1111122 
COMPS,ioos:station:USF.COMPS:TAR:1,2010-06-01T09:48:00Z,28.1560,-82.7580,24.55,1111122 
COMPS,ioos:station:USF.COMPS:TAR:1,2010-06-01T09:54:00Z,28.1560,-82.7580,24.46,1111122 
COMPS,ioos:station:USF.COMPS:TAR:1,2010-06-01T10:00:00Z,28.1560,-82.7580,24.42,1111122 
COMPS,ioos:station:USF.COMPS:TAR:1,2010-06-01T10:06:00Z,28.1560,-82.7580,24.59,1111122 
COMPS,ioos:station:USF.COMPS:TAR:1,2010-06-01T10:12:00Z,28.1560,-82.7580,24.48,1111122 
COMPS,ioos:station:USF.COMPS:TAR:1,2010-06-01T10:18:00Z,28.1560,-82.7580,24.4,1111122 
COMPS,ioos:station:USF.COMPS:TAR:1,2010-06-01T10:24:00Z,28.1560,-82.7580,24.33,1111122 
COMPS,ioos:station:USF.COMPS:TAR:1,2010-06-01T10:30:00Z,28.1560,-82.7580,24.44,1111122 
COMPS,ioos:station:USF.COMPS:TAR:1,2010-06-01T10:36:00Z,28.1560,-82.7580,24.43,1111122 
COMPS,ioos:station:USF.COMPS:TAR:1,2010-06-01T10:42:00Z,28.1560,-82.7580,24.33,1111122 
COMPS,ioos:station:USF.COMPS:TAR:1,2010-06-01T10:48:00Z,28.1560,-82.7580,24.3,1111122 
COMPS,ioos:station:USF.COMPS:TAR:1,2010-06-01T10:54:00Z,28.1560,-82.7580,24.47,1111122 
COMPS,ioos:station:USF.COMPS:TAR:1,2010-06-01T11:00:00Z,28.1560,-82.7580,24.4,1111122 
COMPS,ioos:station:USF.COMPS:TAR:1,2010-06-01T11:06:00Z,28.1560,-82.7580,24.45,1111122 
COMPS,ioos:station:USF.COMPS:TAR:1,2010-06-01T11:12:00Z,28.1560,-82.7580,24.65,1111122 
COMPS,ioos:station:USF.COMPS:TAR:1,2010-06-01T11:18:00Z,28.1560,-82.7580,24.91,1111122 
COMPS,ioos:station:USF.COMPS:TAR:1,2010-06-01T11:24:00Z,28.1560,-82.7580,25.4,1111122 
COMPS,ioos:station:USF.COMPS:TAR:1,2010-06-01T11:30:00Z,28.1560,-82.7580,25.89,1111122 
COMPS,ioos:station:USF.COMPS:TAR:1,2010-06-01T11:36:00Z,28.1560,-82.7580,26.71,1111122 
COMPS,ioos:station:USF.COMPS:TAR:1,2010-06-01T11:42:00Z,28.1560,-82.7580,27.59,1111122 
COMPS,ioos:station:USF.COMPS:TAR:1,2010-06-01T11:48:00Z,28.1560,-82.7580,27.62,1111122 
COMPS,ioos:station:USF.COMPS:TAR:1,2010-06-01T11:54:00Z,28.1560,-82.7580,27.88,1111122 
COMPS,ioos:station:USF.COMPS:TAR:1,2010-06-01T12:00:00Z,28.1560,-82.7580,28.62,1111122 
COMPS,ioos:station:USF.COMPS:TAR:1,2010-06-01T12:06:00Z,28.1560,-82.7580,29.05,1111122 
COMPS,ioos:station:USF.COMPS:TAR:1,2010-06-01T12:12:00Z,28.1560,-82.7580,28.75,1111122 
COMPS,ioos:station:USF.COMPS:TAR:1,2010-06-01T12:18:00Z,28.1560,-82.7580,28.91,1111122 
COMPS,ioos:station:USF.COMPS:TAR:1,2010-06-01T12:24:00Z,28.1560,-82.7580,29.65,1111122 
COMPS,ioos:station:USF.COMPS:TAR:1,2010-06-01T12:30:00Z,28.1560,-82.7580,28.87,1111122 
COMPS,ioos:station:USF.COMPS:TAR:1,2010-06-01T12:36:00Z,28.1560,-82.7580,28.77,1111122 
COMPS,ioos:station:USF.COMPS:TAR:1,2010-06-01T12:42:00Z,28.1560,-82.7580,29.13,1111122 
COMPS,ioos:station:USF.COMPS:TAR:1,2010-06-01T12:48:00Z,28.1560,-82.7580,28.96,1111122 
COMPS,ioos:station:USF.COMPS:TAR:1,2010-06-01T12:54:00Z,28.1560,-82.7580,29.45,1111122 
COMPS,ioos:station:USF.COMPS:TAR:1,2010-06-01T13:00:00Z,28.1560,-82.7580,30.67,1111122 
COMPS,ioos:station:USF.COMPS:TAR:1,2010-06-01T13:06:00Z,28.1560,-82.7580,31.96,1111122 
COMPS,ioos:station:USF.COMPS:TAR:1,2010-06-01T13:12:00Z,28.1560,-82.7580,31.65,1111122 
COMPS,ioos:station:USF.COMPS:TAR:1,2010-06-01T13:18:00Z,28.1560,-82.7580,30.46,1111122 
COMPS,ioos:station:USF.COMPS:TAR:1,2010-06-01T13:24:00Z,28.1560,-82.7580,30.22,1111122 
COMPS,ioos:station:USF.COMPS:TAR:1,2010-06-01T13:30:00Z,28.1560,-82.7580,30.55,1111122 
COMPS,ioos:station:USF.COMPS:TAR:1,2010-06-01T13:36:00Z,28.1560,-82.7580,30.72,1111122 
COMPS,ioos:station:USF.COMPS:TAR:1,2010-06-01T13:42:00Z,28.1560,-82.7580,31.66,1111122 
COMPS,ioos:station:USF.COMPS:TAR:1,2010-06-01T13:48:00Z,28.1560,-82.7580,31.24,1111122 
COMPS,ioos:station:USF.COMPS:TAR:1,2010-06-01T13:54:00Z,28.1560,-82.7580,32.02,1111122 
COMPS,ioos:station:USF.COMPS:TAR:1,2010-06-01T14:00:00Z,28.1560,-82.7580,33.28,1111122 
COMPS,ioos:station:USF.COMPS:TAR:1,2010-06-01T14:06:00Z,28.1560,-82.7580,34.04,1111122 
COMPS,ioos:station:USF.COMPS:TAR:1,2010-06-01T14:12:00Z,28.1560,-82.7580,34.82,1111122 
COMPS,ioos:station:USF.COMPS:TAR:1,2010-06-01T14:18:00Z,28.1560,-82.7580,35.41,1111122 
COMPS,ioos:station:USF.COMPS:TAR:1,2010-06-01T14:24:00Z,28.1560,-82.7580,34.56,1111122 
COMPS,ioos:station:USF.COMPS:TAR:1,2010-06-01T14:30:00Z,28.1560,-82.7580,34.07,1111122 
COMPS,ioos:station:USF.COMPS:TAR:1,2010-06-01T14:36:00Z,28.1560,-82.7580,35.01,1111122 
COMPS,ioos:station:USF.COMPS:TAR:1,2010-06-01T14:42:00Z,28.1560,-82.7580,35.33,1111122 
COMPS,ioos:station:USF.COMPS:TAR:1,2010-06-01T14:48:00Z,28.1560,-82.7580,36.12,1111122 
COMPS,ioos:station:USF.COMPS:TAR:1,2010-06-01T14:54:00Z,28.1560,-82.7580,36.79,1111122 
COMPS,ioos:station:USF.COMPS:TAR:1,2010-06-01T15:00:00Z,28.1560,-82.7580,36.97,1111122 
COMPS,ioos:station:USF.COMPS:TAR:1,2010-06-01T15:06:00Z,28.1560,-82.7580,37.58,1111122 
COMPS,ioos:station:USF.COMPS:TAR:1,2010-06-01T15:12:00Z,28.1560,-82.7580,37.78,1111122 
COMPS,ioos:station:USF.COMPS:TAR:1,2010-06-01T15:18:00Z,28.1560,-82.7580,37.54,1111122 
COMPS,ioos:station:USF.COMPS:TAR:1,2010-06-01T15:24:00Z,28.1560,-82.7580,37.41,1111122 
COMPS,ioos:station:USF.COMPS:TAR:1,2010-06-01T15:30:00Z,28.1560,-82.7580,37.58,1111122 
COMPS,ioos:station:USF.COMPS:TAR:1,2010-06-01T15:36:00Z,28.1560,-82.7580,37.51,1111122 
COMPS,ioos:station:USF.COMPS:TAR:1,2010-06-01T15:42:00Z,28.1560,-82.7580,37.46,1111122 
COMPS,ioos:station:USF.COMPS:TAR:1,2010-06-01T15:48:00Z,28.1560,-82.7580,37.17,1111122 
COMPS,ioos:station:USF.COMPS:TAR:1,2010-06-01T15:54:00Z,28.1560,-82.7580,37.15,1111122 
COMPS,ioos:station:USF.COMPS:TAR:1,2010-06-01T16:00:00Z,28.1560,-82.7580,37.3,1111122 
COMPS,ioos:station:USF.COMPS:TAR:1,2010-06-01T16:06:00Z,28.1560,-82.7580,36.82,1111122 
COMPS,ioos:station:USF.COMPS:TAR:1,2010-06-01T16:12:00Z,28.1560,-82.7580,36.86,1111122 
COMPS,ioos:station:USF.COMPS:TAR:1,2010-06-01T16:18:00Z,28.1560,-82.7580,36.87,1111122 
COMPS,ioos:station:USF.COMPS:TAR:1,2010-06-01T16:24:00Z,28.1560,-82.7580,37.0,1111122 
COMPS,ioos:station:USF.COMPS:TAR:1,2010-06-01T16:30:00Z,28.1560,-82.7580,36.77,1111122 
COMPS,ioos:station:USF.COMPS:TAR:1,2010-06-01T16:36:00Z,28.1560,-82.7580,36.6,1111122 
COMPS,ioos:station:USF.COMPS:TAR:1,2010-06-01T16:42:00Z,28.1560,-82.7580,36.54,1111122 
COMPS,ioos:station:USF.COMPS:TAR:1,2010-06-01T16:48:00Z,28.1560,-82.7580,36.28,1111122 
COMPS,ioos:station:USF.COMPS:TAR:1,2010-06-01T16:54:00Z,28.1560,-82.7580,35.97,1111122 
COMPS,ioos:station:USF.COMPS:TAR:1,2010-06-01T17:00:00Z,28.1560,-82.7580,35.54,1111122 
COMPS,ioos:station:USF.COMPS:TAR:1,2010-06-01T17:06:00Z,28.1560,-82.7580,35.55,1111122 
COMPS,ioos:station:USF.COMPS:TAR:1,2010-06-01T17:12:00Z,28.1560,-82.7580,35.62,1111122 
COMPS,ioos:station:USF.COMPS:TAR:1,2010-06-01T17:18:00Z,28.1560,-82.7580,35.65,1111122 
COMPS,ioos:station:USF.COMPS:TAR:1,2010-06-01T17:24:00Z,28.1560,-82.7580,35.49,1111122 
COMPS,ioos:station:USF.COMPS:TAR:1,2010-06-01T17:30:00Z,28.1560,-82.7580,35.45,1111122 
COMPS,ioos:station:USF.COMPS:TAR:1,2010-06-01T17:36:00Z,28.1560,-82.7580,35.64,1111122 
COMPS,ioos:station:USF.COMPS:TAR:1,2010-06-01T17:42:00Z,28.1560,-82.7580,35.93,1111122 
COMPS,ioos:station:USF.COMPS:TAR:1,2010-06-01T17:48:00Z,28.1560,-82.7580,36.18,1111122 
COMPS,ioos:station:USF.COMPS:TAR:1,2010-06-01T17:54:00Z,28.1560,-82.7580,36.22,1111122 
COMPS,ioos:station:USF.COMPS:TAR:1,2010-06-01T18:00:00Z,28.1560,-82.7580,35.9,1111122 
COMPS,ioos:station:USF.COMPS:TAR:1,2010-06-01T18:06:00Z,28.1560,-82.7580,36.17,1111122 
COMPS,ioos:station:USF.COMPS:TAR:1,2010-06-01T18:12:00Z,28.1560,-82.7580,36.19,1111122 
COMPS,ioos:station:USF.COMPS:TAR:1,2010-06-01T18:18:00Z,28.1560,-82.7580,36.43,1111122 
COMPS,ioos:station:USF.COMPS:TAR:1,2010-06-01T18:24:00Z,28.1560,-82.7580,36.65,1111122 
COMPS,ioos:station:USF.COMPS:TAR:1,2010-06-01T18:30:00Z,28.1560,-82.7580,36.49,1111122 
COMPS,ioos:station:USF.COMPS:TAR:1,2010-06-01T18:36:00Z,28.1560,-82.7580,36.63,1111122 
COMPS,ioos:station:USF.COMPS:TAR:1,2010-06-01T18:42:00Z,28.1560,-82.7580,36.44,1111122 
COMPS,ioos:station:USF.COMPS:TAR:1,2010-06-01T18:48:00Z,28.1560,-82.7580,36.56,1111122 
COMPS,ioos:station:USF.COMPS:TAR:1,2010-06-01T18:54:00Z,28.1560,-82.7580,36.36,1111122 
COMPS,ioos:station:USF.COMPS:TAR:1,2010-06-01T19:00:00Z,28.1560,-82.7580,36.48,1111122 
COMPS,ioos:station:USF.COMPS:TAR:1,2010-06-01T19:06:00Z,28.1560,-82.7580,35.79,1111122 
COMPS,ioos:station:USF.COMPS:TAR:1,2010-06-01T19:12:00Z,28.1560,-82.7580,35.96,1111122 
COMPS,ioos:station:USF.COMPS:TAR:1,2010-06-01T19:18:00Z,28.1560,-82.7580,35.95,1111122 
COMPS,ioos:station:USF.COMPS:TAR:1,2010-06-01T19:24:00Z,28.1560,-82.7580,35.83,1111122 
COMPS,ioos:station:USF.COMPS:TAR:1,2010-06-01T19:30:00Z,28.1560,-82.7580,36.06,1111122 
COMPS,ioos:station:USF.COMPS:TAR:1,2010-06-01T19:36:00Z,28.1560,-82.7580,36.03,1111122 
COMPS,ioos:station:USF.COMPS:TAR:1,2010-06-01T19:42:00Z,28.1560,-82.7580,35.99,1111122 
COMPS,ioos:station:USF.COMPS:TAR:1,2010-06-01T19:48:00Z,28.1560,-82.7580,35.87,1111122 
COMPS,ioos:station:USF.COMPS:TAR:1,2010-06-01T19:54:00Z,28.1560,-82.7580,35.85,1111122 
COMPS,ioos:station:USF.COMPS:TAR:1,2010-06-01T20:00:00Z,28.1560,-82.7580,35.66,1111122 
COMPS,ioos:station:USF.COMPS:TAR:1,2010-06-01T20:06:00Z,28.1560,-82.7580,35.62,1111122 
COMPS,ioos:station:USF.COMPS:TAR:1,2010-06-01T20:12:00Z,28.1560,-82.7580,35.21,1111122 
COMPS,ioos:station:USF.COMPS:TAR:1,2010-06-01T20:18:00Z,28.1560,-82.7580,35.39,1111122 
COMPS,ioos:station:USF.COMPS:TAR:1,2010-06-01T20:24:00Z,28.1560,-82.7580,35.55,1111122 
COMPS,ioos:station:USF.COMPS:TAR:1,2010-06-01T20:30:00Z,28.1560,-82.7580,35.36,1111122 
COMPS,ioos:station:USF.COMPS:TAR:1,2010-06-01T20:36:00Z,28.1560,-82.7580,35.12,1111122 
COMPS,ioos:station:USF.COMPS:TAR:1,2010-06-01T20:42:00Z,28.1560,-82.7580,35.17,1111122 
COMPS,ioos:station:USF.COMPS:TAR:1,2010-06-01T20:48:00Z,28.1560,-82.7580,35.26,1111122 
COMPS,ioos:station:USF.COMPS:TAR:1,2010-06-01T20:54:00Z,28.1560,-82.7580,35.33,1111122 
COMPS,ioos:station:USF.COMPS:TAR:1,2010-06-01T21:00:00Z,28.1560,-82.7580,35.25,1111122 
COMPS,ioos:station:USF.COMPS:TAR:1,2010-06-01T21:06:00Z,28.1560,-82.7580,35.26,1111122 
COMPS,ioos:station:USF.COMPS:TAR:1,2010-06-01T21:12:00Z,28.1560,-82.7580,34.84,1111122 
COMPS,ioos:station:USF.COMPS:TAR:1,2010-06-01T21:18:00Z,28.1560,-82.7580,34.66,1111122 
COMPS,ioos:station:USF.COMPS:TAR:1,2010-06-01T21:24:00Z,28.1560,-82.7580,34.86,1111122 
COMPS,ioos:station:USF.COMPS:TAR:1,2010-06-01T21:30:00Z,28.1560,-82.7580,34.69,1111122 
COMPS,ioos:station:USF.COMPS:TAR:1,2010-06-01T21:36:00Z,28.1560,-82.7580,34.7,1111122 
COMPS,ioos:station:USF.COMPS:TAR:1,2010-06-01T21:42:00Z,28.1560,-82.7580,34.62,1111122 
COMPS,ioos:station:USF.COMPS:TAR:1,2010-06-01T21:48:00Z,28.1560,-82.7580,34.48,1111122 
COMPS,ioos:station:USF.COMPS:TAR:1,2010-06-01T21:54:00Z,28.1560,-82.7580,34.27,1111122 
COMPS,ioos:station:USF.COMPS:TAR:1,2010-06-01T22:00:00Z,28.1560,-82.7580,34.03,1111122 
COMPS,ioos:station:USF.COMPS:TAR:1,2010-06-01T22:06:00Z,28.1560,-82.7580,33.87,1111122 
COMPS,ioos:station:USF.COMPS:TAR:1,2010-06-01T22:12:00Z,28.1560,-82.7580,33.66,1111122 
COMPS,ioos:station:USF.COMPS:TAR:1,2010-06-01T22:18:00Z,28.1560,-82.7580,33.46,1111122 
COMPS,ioos:station:USF.COMPS:TAR:1,2010-06-01T22:24:00Z,28.1560,-82.7580,33.51,1111122 
COMPS,ioos:station:USF.COMPS:TAR:1,2010-06-01T22:30:00Z,28.1560,-82.7580,33.31,1111122 
COMPS,ioos:station:USF.COMPS:TAR:1,2010-06-01T22:36:00Z,28.1560,-82.7580,33.19,1111122 
COMPS,ioos:station:USF.COMPS:TAR:1,2010-06-01T22:42:00Z,28.1560,-82.7580,33.08,1111122 
COMPS,ioos:station:USF.COMPS:TAR:1,2010-06-01T22:48:00Z,28.1560,-82.7580,32.87,1111122 
COMPS,ioos:station:USF.COMPS:TAR:1,2010-06-01T22:54:00Z,28.1560,-82.7580,32.63,1111122 
COMPS,ioos:station:USF.COMPS:TAR:1,2010-06-01T23:00:00Z,28.1560,-82.7580,32.4,1111122 
COMPS,ioos:station:USF.COMPS:TAR:1,2010-06-01T23:06:00Z,28.1560,-82.7580,32.11,1111122 
COMPS,ioos:station:USF.COMPS:TAR:1,2010-06-01T23:12:00Z,28.1560,-82.7580,31.93,1111122 
COMPS,ioos:station:USF.COMPS:TAR:1,2010-06-01T23:18:00Z,28.1560,-82.7580,31.72,1111122 
COMPS,ioos:station:USF.COMPS:TAR:1,2010-06-01T23:24:00Z,28.1560,-82.7580,31.7,1111122 
COMPS,ioos:station:USF.COMPS:TAR:1,2010-06-01T23:30:00Z,28.1560,-82.7580,31.32,1111122 
COMPS,ioos:station:USF.COMPS:TAR:1,2010-06-01T23:36:00Z,28.1560,-82.7580,31.13,1111122 
COMPS,ioos:station:USF.COMPS:TAR:1,2010-06-01T23:42:00Z,28.1560,-82.7580,31.01,1111122 
COMPS,ioos:station:USF.COMPS:TAR:1,2010-06-01T23:48:00Z,28.1560,-82.7580,30.87,1111122 
COMPS,ioos:station:USF.COMPS:TAR:1,2010-06-01T23:54:00Z,28.1560,-82.7580,30.58,1111122 
COMPS,ioos:station:USF.COMPS:TAR:1,2010-06-02T00:00:00Z,28.1560,-82.7580,30.27,1111122 
COMPS,ioos:station:USF.COMPS:TAR:1,2010-06-02T00:06:00Z,28.1560,-82.7580,30.09,1111122 
COMPS,ioos:station:USF.COMPS:TAR:1,2010-06-02T00:12:00Z,28.1560,-82.7580,29.94,1111122 
COMPS,ioos:station:USF.COMPS:TAR:1,2010-06-02T00:18:00Z,28.1560,-82.7580,29.75,1111122 
COMPS,ioos:station:USF.COMPS:TAR:1,2010-06-02T00:24:00Z,28.1560,-82.7580,29.46,1111122 
COMPS,ioos:station:USF.COMPS:TAR:1,2010-06-02T00:30:00Z,28.1560,-82.7580,29.03,1111122 
COMPS,ioos:station:USF.COMPS:TAR:1,2010-06-02T00:36:00Z,28.1560,-82.7580,28.8,1111122 
COMPS,ioos:station:USF.COMPS:TAR:1,2010-06-02T00:42:00Z,28.1560,-82.7580,28.62,1111122 
COMPS,ioos:station:USF.COMPS:TAR:1,2010-06-02T00:48:00Z,28.1560,-82.7580,28.51,1111122 
COMPS,ioos:station:USF.COMPS:TAR:1,2010-06-02T00:54:00Z,28.1560,-82.7580,28.26,1111122 
COMPS,ioos:station:USF.COMPS:TAR:1,2010-06-02T01:00:00Z,28.1560,-82.7580,28.17,1111122 
COMPS,ioos:station:USF.COMPS:TAR:1,2010-06-02T01:06:00Z,28.1560,-82.7580,28.12,1111122 
COMPS,ioos:station:USF.COMPS:TAR:1,2010-06-02T01:12:00Z,28.1560,-82.7580,27.98,1111122 
COMPS,ioos:station:USF.COMPS:TAR:1,2010-06-02T01:18:00Z,28.1560,-82.7580,27.88,1111122 
COMPS,ioos:station:USF.COMPS:TAR:1,2010-06-02T01:24:00Z,28.1560,-82.7580,27.97,1111122 
COMPS,ioos:station:USF.COMPS:TAR:1,2010-06-02T01:30:00Z,28.1560,-82.7580,27.73,1111122 
COMPS,ioos:station:USF.COMPS:TAR:1,2010-06-02T01:36:00Z,28.1560,-82.7580,27.61,1111122 
COMPS,ioos:station:USF.COMPS:TAR:1,2010-06-02T01:42:00Z,28.1560,-82.7580,27.51,1111122 
COMPS,ioos:station:USF.COMPS:TAR:1,2010-06-02T01:48:00Z,28.1560,-82.7580,27.46,1111122 
COMPS,ioos:station:USF.COMPS:TAR:1,2010-06-02T01:54:00Z,28.1560,-82.7580,27.33,1111122 
COMPS,ioos:station:USF.COMPS:TAR:1,2010-06-02T02:00:00Z,28.1560,-82.7580,27.22,1111122 
COMPS,ioos:station:USF.COMPS:TAR:1,2010-06-02T02:06:00Z,28.1560,-82.7580,27.23,1111122 
COMPS,ioos:station:USF.COMPS:TAR:1,2010-06-02T02:12:00Z,28.1560,-82.7580,27.18,1111122 
COMPS,ioos:station:USF.COMPS:TAR:1,2010-06-02T02:18:00Z,28.1560,-82.7580,27.37,1111122 
COMPS,ioos:station:USF.COMPS:TAR:1,2010-06-02T02:24:00Z,28.1560,-82.7580,27.43,1111122 
COMPS,ioos:station:USF.COMPS:TAR:1,2010-06-02T02:30:00Z,28.1560,-82.7580,27.37,1111122 
COMPS,ioos:station:USF.COMPS:TAR:1,2010-06-02T02:36:00Z,28.1560,-82.7580,27.26,1111122 
COMPS,ioos:station:USF.COMPS:TAR:1,2010-06-02T02:42:00Z,28.1560,-82.7580,27.12,1111122 
COMPS,ioos:station:USF.COMPS:TAR:1,2010-06-02T02:48:00Z,28.1560,-82.7580,27.07,1111122 
COMPS,ioos:station:USF.COMPS:TAR:1,2010-06-02T02:54:00Z,28.1560,-82.7580,26.96,1111122 
COMPS,ioos:station:USF.COMPS:TAR:1,2010-06-02T03:00:00Z,28.1560,-82.7580,26.95,1111122 
COMPS,ioos:station:USF.COMPS:TAR:1,2010-06-02T03:06:00Z,28.1560,-82.7580,26.84,1111122 